Overview Statistics Trail Chart Weather Telemetry Raw packets
 

This is the latest recevied weather packets stored in our database for station/object N0HOT. If no packets are shown the sender has not sent any weather packets the latest 10 day(s).

<< 106 107 108 109 110 111 112 >>
Time Temp. Humidity Pressure Rain* Wind** Luminosity Snow
1787850115 26.11° C 49% 1018.1 hPa 0 mm - 661 W/m² -
1787849814 26.11° C 47% 1018.1 hPa 0 mm - 684 W/m² -
1787849509 26.11° C 49% 1018.5 hPa 0 mm - 645 W/m² -
1787849208 25.56° C 49% 1018.1 hPa 0 mm - 690 W/m² -
1787848908 25.56° C 51% 1018.1 hPa 0 mm - 646 W/m² -
1787848608 25.56° C 50% 1018.1 hPa 0 mm - 578 W/m² -
1787848302 25.56° C 54% 1018.1 hPa 0 mm - 528 W/m² -
1787847997 25° C 54% 1018.1 hPa 0 mm - 581 W/m² -
1787847696 25° C 52% 1018.5 hPa 0 mm - 639 W/m² -
1787847391 25° C 55% 1018.1 hPa 0 mm - 537 W/m² -
1787847087 24.44° C 57% 1018.5 hPa 0 mm - 593 W/m² -
1787846783 24.44° C 58% 1018.1 hPa 0 mm - 613 W/m² -
1787846478 23.89° C 57% 1018.1 hPa 0 mm - 594 W/m² -
1787846174 23.89° C 59% 1018.1 hPa 0 mm - 580 W/m² -
1787845869 23.33° C 60% 1017.8 hPa 0 mm - 541 W/m² -
1787845565 22.78° C 60% 1018.1 hPa 0 mm - 520 W/m² -
1787845261 22.78° C 62% 1018.1 hPa 0 mm - 573 W/m² -
1787844955 22.22° C 63% 1018.1 hPa 0 mm - 552 W/m² -
1787844655 21.67° C 63% 1017.8 hPa 0 mm - 481 W/m² -
1787844350 21.67° C 65% 1018.1 hPa 0 mm - 178 W/m² -
1787844049 21.11° C 65% 1018.1 hPa 0 mm - 527 W/m² -
1787843744 20.56° C 67% 1018.1 hPa 0 mm - 522 W/m² -
1787843439 20.56° C 68% 1018.1 hPa 0 mm - 131 W/m² -
1787843137 20° C 72% 1018.1 hPa 0 mm - 282 W/m² -
1787842843 20° C 75% 1017.8 hPa 0 mm - 83 W/m² -

* Rain latest hour (hover to see other rain measurements)
** Current wind speed in m/s (hover to see current wind gust speed)